カタログに戻る

STARLINK-2589

運用中通信VLEO
NORAD 48371·PAYLOAD·🇺🇸 United States

打ち上げ May 4, 2021 から Cape Canaveral Space Force Station

Loading…

次のパス (今後24時間)

TLE

最新Source: CelesTrak SupGP

元期: Sep 14, 2026, 20:28 UTC

1 48371C 21038U   26257.85326389  .00003732  00000+0  12001-3 0  2571
2 48371  53.1579 187.5729 0001378  97.0924 325.2851 15.31697208    13

AllMySatでSTARLINK-2589をリアルタイム追跡

Download on the App Store